When you browse on this site, cookies collect data to enhance your experience and personalize the content and advertising you see.
Visit our Privacy Policy to learn more. By continuing to use the site, you agree to this use of cookies and data.
  • In Lithuania
  • List of Countries
  • For 7 days
  • Water Temperature
  • Weather Map
  • Weather Widgets
  • user-avatar
    Login

    Hourly Weather Muyinga

    Today, 16 September, Monday

    Time Temperature Precipitation Wind Pressure Humidity
    00:00 +18°C° 0 mm 0 mps 628 mmHg 79%
    01:00 +18°C° 0 mm 0 mps 627 mmHg 82%
    02:00 +17°C° 0 mm 0 mps 627 mmHg 80%
    03:00 +18°C° 0 mm 0 mps 627 mmHg 79%
    04:00 +18°C° 0 mm 0 mps 627 mmHg 78%
    05:00 +18°C° 0 mm 0 mps 628 mmHg 77%
    06:00 +21°C° 0 mm 1 mps 628 mmHg 73%
    07:00 +21°C° 0 mm 2 mps 629 mmHg 69%
    08:00 +21°C° 0 mm 2 mps 630 mmHg 65%
    09:00 +24°C° 0 mm 3 mps 630 mmHg 56%
    10:00 +27°C° 0 mm 3 mps 631 mmHg 46%
    11:00 +29°C° 0 mm 3 mps 631 mmHg 36%
    12:00 +29°C° 0 mm 3 mps 631 mmHg 35%
    13:00 +29°C° 0 mm 3 mps 630 mmHg 33%
    14:00 +29°C° 0 mm 3 mps 629 mmHg 32%
    15:00 +29°C° 0 mm 3 mps 629 mmHg 32%
    16:00 +29°C° 0 mm 3 mps 628 mmHg 33%
    17:00 +28°C° 0 mm 2 mps 628 mmHg 33%
    18:00 +27°C° 0 mm 2 mps 628 mmHg 36%
    19:00 +25°C° 0 mm 1 mps 628 mmHg 39%
    20:00 +21°C° 0 mm 0 mps 628 mmHg 42%
    21:00 +21°C° 0 mm 0 mps 628 mmHg 44%
    22:00 +20°C° 0 mm 0 mps 628 mmHg 45%
    23:00 +20°C° 0 mm 0 mps 628 mmHg 46%

    Tomorrow, 17 September, Tuesday

    Time Temperature Precipitation Wind Pressure Humidity
    00:00 +19°C° 0 mm 0 mps 627 mmHg 48%
    01:00 +19°C° 0 mm 0 mps 627 mmHg 50%
    02:00 +18°C° 0 mm 0 mps 626 mmHg 51%
    03:00 +21°C° 0 mm 1 mps 627 mmHg 51%
    04:00 +21°C° 0 mm 1 mps 628 mmHg 50%
    05:00 +20°C° 0 mm 2 mps 628 mmHg 49%
    06:00 +21°C° 0 mm 2 mps 629 mmHg 48%
    07:00 +22°C° 0 mm 3 mps 630 mmHg 47%
    08:00 +23°C° 0 mm 4 mps 630 mmHg 46%
    09:00 +26°C° 0 mm 4 mps 631 mmHg 41%
    10:00 +27°C° 0 mm 3 mps 631 mmHg 37%
    11:00 +29°C° 0 mm 3 mps 631 mmHg 32%
    12:00 +30°C° 0 mm 3 mps 631 mmHg 30%
    13:00 +31°C° 0 mm 3 mps 630 mmHg 28%
    14:00 +31°C° 0 mm 3 mps 629 mmHg 26%
    15:00 +30°C° 0 mm 2 mps 629 mmHg 28%
    16:00 +30°C° 0 mm 2 mps 628 mmHg 31%
    17:00 +29°C° 0 mm 2 mps 628 mmHg 33%
    18:00 +27°C° 0 mm 2 mps 628 mmHg 35%
    19:00 +26°C° 0 mm 2 mps 628 mmHg 37%
    20:00 +24°C° 0 mm 1 mps 628 mmHg 39%
    21:00 +24°C° 0 mm 1 mps 627 mmHg 40%
    22:00 +23°C° 0 mm 1 mps 627 mmHg 42%
    23:00 +20°C° 0 mm 0 mps 627 mmHg 43%

    Day after tomorrow, 18 September, Wednesday

    Time Temperature Precipitation Wind Pressure Humidity
    00:00 +20°C° 0 mm 0 mps 627 mmHg 43%
    01:00 +20°C° 0 mm 0 mps 627 mmHg 44%
    02:00 +20°C° 0 mm 0 mps 626 mmHg 45%
    03:00 +21°C° 0 mm 1 mps 627 mmHg 47%
    04:00 +21°C° 0 mm 1 mps 627 mmHg 49%
    05:00 +19°C° 0 mm 2 mps 627 mmHg 52%
    06:00 +20°C° 0 mm 3 mps 628 mmHg 50%
    07:00 +21°C° 0 mm 3 mps 629 mmHg 49%
    08:00 +22°C° 0 mm 4 mps 630 mmHg 48%
    09:00 +25°C° 0 mm 4 mps 630 mmHg 44%
    10:00 +26°C° 0 mm 3 mps 631 mmHg 41%
    11:00 +28°C° 0 mm 3 mps 631 mmHg 37%
    12:00 +28°C° 0 mm 3 mps 630 mmHg 37%
    13:00 +28°C° 0 mm 2 mps 629 mmHg 36%
    14:00 +28°C° 0 mm 2 mps 629 mmHg 35%
    15:00 +28°C° 0 mm 2 mps 629 mmHg 36%
    16:00 +27°C° 0 mm 2 mps 628 mmHg 37%
    17:00 +27°C° 0 mm 1 mps 628 mmHg 38%
    18:00 +25°C° 0 mm 1 mps 628 mmHg 42%
    19:00 +24°C° 0 mm 1 mps 628 mmHg 45%
    20:00 +21°C° 0 mm 0 mps 628 mmHg 49%
    21:00 +20°C° 0 mm 0 mps 628 mmHg 51%
    22:00 +19°C° 0 mm 0 mps 627 mmHg 54%
    23:00 +18°C° 0 mm 0 mps 627 mmHg 57%

    19 September, Thursday

    Time Temperature Precipitation Wind Pressure Humidity
    00:00 +18°C° 0 mm 0 mps 627 mmHg 58%
    01:00 +19°C° 0 mm 1 mps 626 mmHg 60%
    02:00 +19°C° 0 mm 1 mps 626 mmHg 62%
    03:00 +19°C° 0 mm 1 mps 626 mmHg 63%
    04:00 +18°C° 0 mm 1 mps 627 mmHg 64%
    05:00 +18°C° 0 mm 1 mps 627 mmHg 65%
    06:00 +19°C° 0 mm 2 mps 628 mmHg 58%
    07:00 +21°C° 0 mm 3 mps 630 mmHg 51%
    08:00 +24°C° 0 mm 3 mps 631 mmHg 43%
    09:00 +26°C° 0 mm 3 mps 631 mmHg 39%
    10:00 +27°C° 0 mm 3 mps 631 mmHg 34%
    11:00 +29°C° 0 mm 3 mps 631 mmHg 30%
    12:00 +30°C° 0 mm 3 mps 631 mmHg 29%
    13:00 +30°C° 0 mm 2 mps 630 mmHg 27%
    14:00 +30°C° 0 mm 2 mps 629 mmHg 26%
    15:00 +30°C° 0 mm 2 mps 629 mmHg 28%
    16:00 +29°C° 0 mm 2 mps 629 mmHg 29%
    17:00 +29°C° 0 mm 2 mps 629 mmHg 30%
    18:00 +27°C° 0 mm 2 mps 628 mmHg 34%
    19:00 +25°C° 0 mm 1 mps 628 mmHg 38%
    20:00 +23°C° 0 mm 1 mps 628 mmHg 42%
    21:00 +23°C° 0 mm 1 mps 628 mmHg 42%
    22:00 +22°C° 0 mm 1 mps 628 mmHg 42%
    23:00 +20°C° 0 mm 0 mps 628 mmHg 43%

    20 September, Friday

    Time Temperature Precipitation Wind Pressure Humidity
    00:00 +19°C° 0 mm 0 mps 627 mmHg 45%
    01:00 +20°C° 0 mm 1 mps 627 mmHg 47%
    02:00 +20°C° 0 mm 1 mps 626 mmHg 49%
    03:00 +19°C° 0 mm 1 mps 627 mmHg 51%
    04:00 +19°C° 0 mm 1 mps 627 mmHg 52%
    05:00 +17°C° 0 mm 0 mps 627 mmHg 54%
    06:00 +20°C° 0 mm 1 mps 628 mmHg 49%
    07:00 +21°C° 0 mm 3 mps 629 mmHg 44%
    08:00 +23°C° 0 mm 4 mps 630 mmHg 40%
    09:00 +26°C° 0 mm 4 mps 631 mmHg 35%
    10:00 +27°C° 0 mm 4 mps 631 mmHg 31%
    11:00 +29°C° 0 mm 4 mps 631 mmHg 27%
    12:00 +30°C° 0 mm 3 mps 631 mmHg 26%
    13:00 +30°C° 0 mm 3 mps 630 mmHg 25%
    14:00 +31°C° 0 mm 3 mps 629 mmHg 24%
    15:00 +30°C° 0 mm 3 mps 629 mmHg 25%
    16:00 +29°C° 0 mm 2 mps 629 mmHg 27%
    17:00 +29°C° 0 mm 2 mps 628 mmHg 29%
    18:00 +27°C° 0 mm 2 mps 628 mmHg 31%
    19:00 +26°C° 0 mm 2 mps 628 mmHg 34%
    20:00 +24°C° 0 mm 2 mps 628 mmHg 37%
    21:00 +23°C° 0 mm 1 mps 628 mmHg 38%
    22:00 +23°C° 0 mm 1 mps 628 mmHg 40%
    23:00 +20°C° 0 mm 0 mps 627 mmHg 41%

    21 September, Saturday

    Time Temperature Precipitation Wind Pressure Humidity
    00:00 +19°C° 0 mm 0 mps 627 mmHg 44%
    01:00 +18°C° 0 mm 0 mps 626 mmHg 46%
    02:00 +20°C° 0 mm 1 mps 626 mmHg 48%
    03:00 +19°C° 0 mm 1 mps 626 mmHg 49%
    04:00 +17°C° 0 mm 0 mps 626 mmHg 51%
    05:00 +16°C° 0 mm 0 mps 627 mmHg 52%
    06:00 +20°C° 0 mm 1 mps 628 mmHg 47%
    07:00 +21°C° 0 mm 2 mps 629 mmHg 42%
    08:00 +24°C° 0 mm 3 mps 630 mmHg 38%
    09:00 +26°C° 0 mm 3 mps 631 mmHg 33%
    10:00 +28°C° 0 mm 3 mps 631 mmHg 29%
    11:00 +30°C° 0 mm 3 mps 631 mmHg 25%
    12:00 +31°C° 0 mm 3 mps 630 mmHg 24%
    13:00 +33°C° 0 mm 3 mps 630 mmHg 22%
    14:00 +34°C° 0 mm 3 mps 629 mmHg 20%
    15:00 +31°C° 0 mm 3 mps 629 mmHg 23%
    16:00 +30°C° 0 mm 3 mps 628 mmHg 26%
    17:00 +29°C° 0 mm 2 mps 627 mmHg 28%
    18:00 +27°C° 0 mm 2 mps 627 mmHg 32%
    19:00 +25°C° 0 mm 2 mps 627 mmHg 35%
    20:00 +23°C° 0 mm 1 mps 627 mmHg 38%
    21:00 +23°C° 0 mm 1 mps 627 mmHg 39%
    22:00 +22°C° 0 mm 1 mps 627 mmHg 41%
    23:00 +22°C° 0 mm 1 mps 627 mmHg 42%
    Show more